Tracking 19920 objects as of 14-Oct-2019
HD Live streaming from Space Station
objects crossing your sky now

DELTA 1 DEB

Track DELTA 1 DEB now!
10-day predictions


NORAD ID: 13574
Int'l Code: 1978-026FM
Perigee: 824.8 km
Apogee: 880.3 km
Inclination: 98.7 °
Period: 101.8 minutes
Semi major axis: 7223 km
RCS: 0.0387 m2 (small)
Launch date: March 5, 1978
Source: United States (US)
Launch site: AIR FORCE WESTERN TEST RANGE (AFWTR)

Note: This is SATELLITE DEBRIS
aabbcc
Your satellite tracking list
Your tracking list is empty




NASA's NSSDC Master Catalog

Two Line Element Set (TLE):
1 13574U 78026FM  19286.85939325 +.00000102 +00000-0 +75860-4 0  9996
2 13574 098.7466 245.2693 0038433 236.1898 176.9166 14.14087672961643
Source of the keplerian elements: AFSPC